Regional Weather Roundup
Issued by NWS

Home | Current Version | Previous Version | Text Only | Print | Product List | Glossary Off
Versions: 1 2 3 4 5 6 7 8 9 10 11 12 13 14 15 16 17 18 19 20 21 22 23 24 25 26 27

000
ASUS45 KBOU 230207
RWRCO

WEATHER ROUNDUP FOR COLORADO
NATIONAL WEATHER SERVICE DENVER/BOULDER CO
800 PM MDT SAT JUL 22 2017

NOTE: "FAIR" INDICATES FEW OR NO CLOUDS BELOW 12000 FEET WITH NO
SIGNIFICANT WEATHER AND/OR OBSTRUCTIONS TO VISIBILITY.

COZ001>005-013-030-031-230300-
...NORTHWEST COLORADO...

CITY           SKY/WX    TMP DP  RH WIND       PRES   REMARKS
CRAIG          FAIR      78  36  21 N5        30.20S
HAYDEN         FAIR      79  34  19 NE6       30.24R
MEEKER         FAIR      79  36  21 N8        30.21S
RABBIT EARS PA FAIR      61  32  33 N3        30.59R
STEAMBOAT SPGS FAIR      77  38  24 W6        30.26R
WALDEN         FAIR      70  27  19 N12       30.39R
$$

COZ006>008-011-230300-
...WEST CENTRAL VALLEYS...

CITY           SKY/WX    TMP DP  RH WIND       PRES   REMARKS
GRAND JUNCTION FAIR      90  49  24 W5        30.04R
MONTROSE       FAIR      78  46  32 SE10      30.18F
EAGLE          FAIR      82  40  22 N8        30.24R
RIFLE          FAIR      88  38  17 N8        30.11S
DELTA          MOCLDY    88  49  26 S13G20    30.12R
NUCLA          NOT AVBL
$$

COZ017>023-064>068-230300-
...SOUTHWEST COLORADO...

CITY           SKY/WX    TMP DP  RH WIND       PRES   REMARKS
DURANGO        CLOUDY    64  52  64 E7        30.28F
CORTEZ         CLOUDY    76  51  41 MISG      30.18S
PAGOSA SPRINGS CLOUDY    62  55  77 NW3       30.39R
TELLURIDE      MOCLDY    62  52  70 SE8       30.47R
WOLF CREEK PAS LGT RAIN  45  43  93 E8        30.72S
$$

COZ009-010-012-014-032>034-037-058>063-230300-
...CENTRAL COLORADO...

CITY           SKY/WX    TMP DP  RH WIND       PRES   REMARKS
ASPEN          FAIR      73  45  36 SE12      30.32R
BUENA VISTA    FAIR      59  49  67 SE3       30.44R
COPPER MTN     FAIR      59  39  47 CALM      30.69S
BERTHOUD PASS  FAIR      46  32  57 SE10      30.74R
COTTONWOOD PAS FAIR      55  48  76 N5        30.56R
GUNNISON       FAIR      61  50  67 E9        30.41R
KREMMLING      FAIR      81  32  17 N6        30.30R
LEADVILLE      FAIR      56  42  59 SW3       30.53R
MONARCH PASS   CLOUDY    45  41  87 S10G26    30.80S
SALIDA         FAIR      59  56  89 SE3       30.48R
SUNLIGHT       FAIR      55  36  47 CALM      30.61S
WILKERSON PASS FAIR      54  41  62 CALM      30.68R
$$

COZ069>075-230300-
...SAN LUIS VALLEY/SANGRE DE CRISTO MOUNTAINS...

CITY           SKY/WX    TMP DP  RH WIND       PRES   REMARKS
ALAMOSA        MOCLDY    62  55  77 SW9       30.38S
DEL NORTE      CLOUDY    63  50  62 N20       30.43R
LA VETA PASS   NOT AVBL
SAGUACHE         N/A    N/A N/A N/A MISG        N/A
$$

COZ035-036-038>040-230300-
...NORTHERN COLORADO FRONT RANGE...

CITY           SKY/WX    TMP DP  RH WIND       PRES   REMARKS
DENVER INTL AP MOCLDY    83  51  33 SE12      30.15R
DMNS CITY PARK   N/A     83  47  28 E2G8      30.14R
AURORA         NOT AVBL
FRONT RANGE AP FAIR      82  52  34 SE20      30.18R
ERIE MUNI ARPT FAIR      82  49  31 CALM      30.13R
BOULDER MUN AP FAIR      82  46  28 CALM      30.14S
CENTENNIAL     MOCLDY    80  50  34 W6        30.19R
BROOMFIELD     FAIR      82  45  26 CALM      30.18R
FORT COLLINS   FAIR      83  51  33 CALM      30.13R
LONGMONT       FAIR      83  50  32 CALM      30.14R
$$

COZ041-046-047-076>085-087-088-230300-
...PIKES PEAK/PALMER DIVIDE AND SOUTHERN FOOTHILLS...

CITY           SKY/WX    TMP DP  RH WIND       PRES   REMARKS
COLO. SPRINGS  MOCLDY    70  64  81 CALM      30.26R
A. F. ACADEMY  NOT AVBL
SCHRIEVER AFB  NOT AVBL
CHEYENNE MTN   NOT AVBL
ELLICOTT       FAIR     N/A N/A N/A SW7       30.25R
FALCON           N/A     70  53  55 W13       30.31S
FORT CARSON    NOT AVBL
LIMON          FAIR      71  59  65 E9        30.19R
MONUMENT HILL  FAIR      68  54  60 S6        30.32R
CANON CITY     PTCLDY    68  59  73 W17       30.21F
WALSENBURG     CLOUDY    72  55  56 S9        30.26S
TRINIDAD       FAIR      71  51  49 W10       30.23F
$$

COZ042>045-048>051-090-091-230300-
...NORTHEAST COLORADO...

CITY           SKY/WX    TMP DP  RH WIND       PRES   REMARKS
GREELEY ARPT   FAIR      81  53  37 SE13      30.11R
AKRON          FAIR      75  54  47 SE9       30.14R
BURLINGTON     FAIR      73  52  47 E8        30.13R
WRAY           NOT AVBL
YUMA           FAIR      70  54  56 SE6       30.11S
STERLING       FAIR      79  52  38 SE7       30.09R
HOLYOKE        FAIR      79  52  38 CALM      30.10R
FORT MORGAN    FAIR      76  46  33 SE12      30.13S
$$

COZ086-089-092>099-230300-
...SOUTHEAST COLORADO...

CITY           SKY/WX    TMP DP  RH WIND       PRES   REMARKS
PUEBLO         FAIR      80  53  39 SW12      30.13R
LA JUNTA       FAIR      80  56  43 SW14      30.11R
LAMAR          FAIR      81  57  43 E10       30.06R
SPRINGFIELD      N/A     80  57  45 NE16      30.10R
$$




USA.gov is the U.S. government's official web portal to all federal, state and local government web resources and services.